Hourly Data Report for May 27, 2021

WIARTON A
ONTARIO
Current Station Operator: NAVCAN

44°44'39.000" N
81°06'31.000" W
221.90 m
6119499
71633
YVV

Download Data

Hourly Data (May 2021)
Hourly Data Report for May 27, 2021
TIME
LST
Temp Definition
°C
Dew Point Definition
°C
Rel Hum Definition
%
Precip. Amount Definition
mm

Wind Dir Definition
10's deg

Wind Spd Definition
km/h
Visibility Definition
km
Stn Press Definition
kPa
Hmdx Definition


Wind Chill Definition


Weather Definition


00:00 6.8 3.6 80   29 7 24.1 99.15     LegendNANA
01:00 6.2 3.9 85   29 5 24.1 99.21     Mainly Clear
02:00 5.4 4.1 91   36 3 24.1 99.28     LegendNANA
03:00 4.4 2.8 89   6 12 24.1 99.28     LegendNANA
04:00 5.2 1.8 78   4 16 24.1 99.39     Mainly Clear
05:00 5.2 1.7 78   3 13 24.1 99.42     LegendNANA
06:00 5.6 1.6 76   4 13 24.1 99.48     LegendNANA
07:00 6.8 1.0 67   4 16 24.1 99.60     Mainly Clear
08:00 7.0 0.3 62   3 16 24.1 99.64     LegendNANA
09:00 7.3 0.3 61   4 14 24.1 99.68     LegendNANA
10:00 8.4 1.2 60   5 14 24.1 99.64     Clear
11:00 8.1 0.2 57   3 13 24.1 99.68     LegendNANA
12:00 8.4 0.7 58   4 14 24.1 99.68     LegendNANA
13:00 8.0 -0.4 55   2 12 24.1 99.72     Mostly Cloudy
14:00 8.8 -0.1 54   4 17 24.1 99.69     LegendNANA
15:00 9.4 -2.7 42   2 13 24.1 99.64     LegendNANA
16:00 8.8 -2.4 45   1 11 24.1 99.61     Cloudy
17:00 8.3 -1.6 49   3 8 24.1 99.59     LegendNANA
18:00 8.1 -1.9 49   2 7 24.1 99.55     LegendNANA
19:00 7.8 -1.5 52   4 5 24.1 99.56     Cloudy
20:00 7.2 -1.1 55   4 10 24.1 99.47     LegendNANA
21:00 6.7 -1.2 57   5 9 24.1 99.47     LegendNANA
22:00 6.9 0.0 61   4 9 24.1 99.52     Cloudy
23:00 6.8 0.4 64   5 13 24.1 99.55     LegendNANA

Notes on Data Quality.

Legend

  • E = Estimated
  • M = Missing
  • NA = Not Available*
  • [empty] = Indicates an unobserved value
Date modified: